IK5NLA Vaiano IT current weather conditions

sailwx.info

Wind from 331 at 0 knots

Air temperature 20.6° C
Dewpoint 17.9° C

Last reported at 2016-Jul-25 19:51 UTC.
Time now 2016-Jul-25 20:08 UTC

Location: N 43°58' E 011°06'.
View on Google Maps.

See reports from other nearby stations

  
Tides and Currents Weather Stations Pressure Air Temp Water Temp Dewpoint Dewpoint Depression Visibility Wind Speed Wind Dir Waves Ship Positions
date/time (UTC)wind fromknots sea level pressurealtimeterstation pressurevisibilityair tempwater tempwave heightnotes
2016-Jul-25 19:51 331 0 20.6
2016-Jul-25 19:46 331 0 20.6
2016-Jul-25 19:41 333 20.0
2016-Jul-25 19:36 329 0 20.0
2016-Jul-25 19:31 331 0 20.6
2016-Jul-25 19:26 323 20.6
2016-Jul-25 19:11 331 20.6
2016-Jul-25 19:06 329 20.6
2016-Jul-25 19:01 330 20.0
2016-Jul-25 18:57 329 20.0
2016-Jul-25 18:51 337 1 20.0
2016-Jul-25 18:46 334 1 20.0
2016-Jul-25 18:36 333 0 20.0
2016-Jul-25 18:31 332 0 20.0
2016-Jul-25 18:21 333 2 20.0
2016-Jul-25 18:16 323 3 20.6
2016-Jul-25 18:06 360 1 20.6
2016-Jul-25 18:01 345 1 20.6
2016-Jul-25 17:56 328 2 21.1
2016-Jul-25 17:51 338 4 21.1
2016-Jul-25 17:46 338 4 20.6
2016-Jul-25 17:41 343 3 20.6
2016-Jul-25 17:31 323 1 20.0
2016-Jul-25 17:21 360 0 20.0
2016-Jul-25 17:16 317 0 20.0
2016-Jul-25 16:51 336 0 18.9
2016-Jul-25 16:26 311 6 20.6
2016-Jul-25 16:21 355 5 21.1
2016-Jul-25 16:16 360 4 21.1
2016-Jul-25 16:06 319 1 21.7
2016-Jul-25 16:01 059 1 21.7
2016-Jul-25 15:56 079 1 22.2
2016-Jul-25 15:51 062 0 22.2
2016-Jul-25 15:41 039 22.2
2016-Jul-25 15:16 061 1 23.3
2016-Jul-25 15:11 109 2 24.4
2016-Jul-25 15:01 257 2 23.9
2016-Jul-25 14:56 216 2 23.9
2016-Jul-25 14:31 276 1 25.6
2016-Jul-25 14:16 277 4 25.0
2016-Jul-25 14:11 267 6 25.0
2016-Jul-25 14:06 265 6 24.4
2016-Jul-25 13:56 267 5 25.6
2016-Jul-25 13:51 298 3 26.1
2016-Jul-25 13:46 286 3 26.7
2016-Jul-25 13:41 249 5 27.2
2016-Jul-25 13:36 263 5 27.8
2016-Jul-25 13:31 269 3 27.8
2016-Jul-25 13:26 232 3 27.8
2016-Jul-25 13:21 250 3 27.2
2016-Jul-25 13:16 252 2 27.2
2016-Jul-25 13:11 233 2 27.2
2016-Jul-25 13:06 244 3 27.8
2016-Jul-25 12:51 123 2 28.3
2016-Jul-25 12:46 159 3 27.8
2016-Jul-25 12:41 202 3 27.8
2016-Jul-25 12:31 222 3 28.3
2016-Jul-25 12:26 236 3 28.3
2016-Jul-25 12:16 225 5 27.8
2016-Jul-25 12:11 223 2 27.8
2016-Jul-25 12:06 307 1 27.8
2016-Jul-25 12:01 246 1 27.8
2016-Jul-25 11:41 123 2 27.2
2016-Jul-25 11:36 095 2 26.7
2016-Jul-25 11:31 049 2 26.7
2016-Jul-25 11:26 053 2 26.7
2016-Jul-25 11:21 114 3 26.7
2016-Jul-25 11:16 123 2 26.7
2016-Jul-25 11:11 079 1 26.7
2016-Jul-25 11:06 144 2 26.7
2016-Jul-25 11:01 129 2 26.7
2016-Jul-25 10:46 077 3 26.7
2016-Jul-25 10:41 095 2 26.7
2016-Jul-25 10:36 071 2 26.1
2016-Jul-25 10:31 111 2 26.1
2016-Jul-25 10:26 102 3 26.7
2016-Jul-25 10:21 092 3 26.7
2016-Jul-25 10:16 103 1 27.2
2016-Jul-25 10:11 146 1 26.7
2016-Jul-25 10:06 221 1 26.7
2016-Jul-25 10:01 157 1 26.7
2016-Jul-25 09:56 171 1 27.2
2016-Jul-25 09:51 130 1 27.2
2016-Jul-25 09:46 180 1 27.2
2016-Jul-25 09:41 101 2 26.7
2016-Jul-25 09:36 106 2 26.1
2016-Jul-25 09:26 082 3 26.1
2016-Jul-25 09:21 114 2 26.7
2016-Jul-25 09:16 080 2 25.6
2016-Jul-25 09:06 106 1 26.1
2016-Jul-25 08:56 122 3 25.6
2016-Jul-25 08:51 096 3 25.6
2016-Jul-25 08:46 080 2 25.6
2016-Jul-25 08:41 123 2 26.1
2016-Jul-25 08:36 114 2 25.6
2016-Jul-25 08:31 113 2 25.6
2016-Jul-25 08:21 110 1 25.0
2016-Jul-25 08:16 112 1 25.0
2016-Jul-25 08:11 109 2 25.0
2016-Jul-25 07:56 113 2 23.9
2016-Jul-25 07:51 099 1 23.3
2016-Jul-25 07:36 117 1 22.8
2016-Jul-25 07:31 094 0 22.8
2016-Jul-25 07:26 065 1 22.8
2016-Jul-25 07:16 017 0 22.8
2016-Jul-25 07:11 052 1 22.8
2016-Jul-25 07:06 062 1 22.2
2016-Jul-25 07:01 051 1 22.2
2016-Jul-25 06:56 090 0 22.2
2016-Jul-25 06:41 053 1 22.2
2016-Jul-25 06:36 005 1 22.2
2016-Jul-25 06:16 058 1 21.7
2016-Jul-25 06:11 086 1 22.2
2016-Jul-25 06:06 074 0 21.7
2016-Jul-25 06:01 056 0 21.7
2016-Jul-25 05:56 065 0 21.7
2016-Jul-25 05:41 037 1 21.1
2016-Jul-25 05:36 022 2 21.1
2016-Jul-25 05:26 034 1 21.1
2016-Jul-25 05:16 051 0 21.1
2016-Jul-25 05:06 040 0 21.1
2016-Jul-25 05:01 024 0 21.1
2016-Jul-25 04:56 019 20.6
2016-Jul-25 04:51 022 20.6
2016-Jul-25 04:46 355 20.6
2016-Jul-25 04:36 019 0 20.6
2016-Jul-25 04:26 017 1 20.6
2016-Jul-25 04:11 360 1 20.6
2016-Jul-25 04:06 014 0 20.0
2016-Jul-25 03:56 319 0 20.0
2016-Jul-25 03:51 315 20.0
2016-Jul-25 03:46 032 20.0
2016-Jul-25 03:41 039 20.6
2016-Jul-25 03:16 053 2 21.1
2016-Jul-25 03:11 015 2 21.1
2016-Jul-25 03:01 017 3 20.6
2016-Jul-25 02:51 013 2 20.0
2016-Jul-25 02:36 071 20.0
2016-Jul-25 02:31 071 20.0
2016-Jul-25 02:21 078 1 20.6
2016-Jul-25 02:16 064 2 20.0
2016-Jul-25 02:11 025 1 20.0
2016-Jul-25 01:56 332 0 19.4
2016-Jul-25 01:46 032 19.4
2016-Jul-25 01:41 032 0 19.4
2016-Jul-25 01:36 036 0 19.4
2016-Jul-25 01:26 355 19.4
2016-Jul-25 01:16 017 18.9
2016-Jul-25 01:06 053 18.9
2016-Jul-25 00:51 053 19.4
2016-Jul-25 00:46 052 19.4
2016-Jul-25 00:36 351 19.4
2016-Jul-25 00:16 062 19.4
2016-Jul-25 00:11 288 0 19.4
2016-Jul-25 00:06 250 0 19.4
2016-Jul-25 00:01 221 0 20.0
2016-Jul-24 23:56 226 20.0
2016-Jul-24 23:41 232 3 20.0
2016-Jul-24 23:36 205 1 20.0
2016-Jul-24 23:31 183 0 20.0
2016-Jul-24 23:26 188 20.6
2016-Jul-24 23:16 120 0 20.6
2016-Jul-24 23:11 157 3 20.6
2016-Jul-24 22:56 273 6 20.6
2016-Jul-24 22:46 202 8 21.1
2016-Jul-24 22:36 255 4 21.7
2016-Jul-24 22:21 036 22.2
2016-Jul-24 22:06 281 22.2
2016-Jul-24 22:01 281 22.2
2016-Jul-24 21:51 281 22.2
2016-Jul-24 21:46 281 22.8
2016-Jul-24 21:41 280 0 22.8
2016-Jul-24 21:31 331 22.8
2016-Jul-24 21:26 332 0 22.8
2016-Jul-24 21:11 041 23.3
2016-Jul-24 21:06 042 23.3
2016-Jul-24 20:46 058 2 23.3
2016-Jul-24 20:36 021 3 23.3
2016-Jul-24 20:26 019 3 23.3
2016-Jul-24 20:21 334 2 22.8
2016-Jul-24 20:16 011 1 22.8
2016-Jul-24 20:01 030 1 22.8
2016-Jul-24 19:56 043 2 22.8
2016-Jul-24 19:51 055 3 23.3
2016-Jul-24 19:46 348 4 23.3
2016-Jul-24 19:41 014 4 23.3
2016-Jul-24 19:36 326 4 23.3
2016-Jul-24 19:16 024 2 22.8
2016-Jul-24 19:11 355 2 23.3
2016-Jul-24 19:06 360 2 23.3
2016-Jul-24 19:01 019 2 22.8
2016-Jul-24 18:41 032 2 23.3
2016-Jul-24 18:36 029 3 23.3
2016-Jul-24 18:21 054 2 23.9
2016-Jul-24 18:16 039 2 23.9
2016-Jul-24 18:06 065 2 24.4
2016-Jul-24 18:01 069 1 24.4
2016-Jul-24 17:26 302 3 25.0
2016-Jul-24 17:16 018 5 25.6
2016-Jul-24 17:11 050 4 25.6
2016-Jul-24 16:51 281 2 26.7
2016-Jul-24 16:46 279 1 26.7
2016-Jul-24 16:31 313 0 26.7
2016-Jul-24 16:26 301 1 26.7
2016-Jul-24 16:11 317 0 27.2
2016-Jul-24 16:01 313 0 27.2
2016-Jul-24 15:46 301 1 26.7
2016-Jul-24 15:36 311 0 27.2
2016-Jul-24 15:31 316 27.2
2016-Jul-24 15:16 328 28.3
2016-Jul-24 15:11 048 28.9
2016-Jul-24 13:26 322 0 28.9
2016-Jul-24 13:11 245 0 28.3
2016-Jul-24 12:36 180 1 27.2
2016-Jul-24 12:31 071 0 27.8
2016-Jul-24 12:26 288 0 27.2
2016-Jul-24 12:21 258 0 27.2
2016-Jul-24 12:16 168 1 27.2
2016-Jul-24 12:06 117 1 26.7
2016-Jul-24 11:51 056 2 26.1
2016-Jul-24 11:46 114 2 26.7
2016-Jul-24 11:31 083 1 26.1
2016-Jul-24 11:26 122 1 26.1
2016-Jul-24 11:16 132 1 26.1
2016-Jul-24 11:06 045 2 26.1
2016-Jul-24 11:01 086 1 26.1
2016-Jul-24 10:56 080 1 26.1
2016-Jul-24 10:51 061 2 25.6
2016-Jul-24 10:46 069 2 25.6
2016-Jul-24 09:51 080 1 24.4
2016-Jul-24 09:46 047 2 24.4
2016-Jul-24 09:41 039 2 24.4
2016-Jul-24 09:36 082 2 24.4
2016-Jul-24 09:31 103 1 24.4
2016-Jul-24 09:26 042 2 24.4
2016-Jul-24 09:21 005 3 24.4
2016-Jul-24 09:16 071 3 24.4